Regional Weather Roundup
Issued by NWS Charleston, SC

Current Version | Previous Version | Graphics & Text | Print | Product List | Glossary On
Versions: 1 2 3 4 5 6 7 8 9 10 11 12 13 14 15 16 17 18 19 20 21 22 23 24 25 26 27 28 29 30 31 32 33 34 35 36 37 38 39 40 41 42 43 44 45 46 47 48 49 50
000 ASUS42 KCHS 021627 RWRCHS REGIONAL WEATHER ROUNDUP NATIONAL WEATHER SERVICE CHARLESTON SC 1200 PM EDT SUN AUG 02 2015 NOTE: "FAIR" INDICATES FEW OR NO CLOUDS BELOW 12,000 FEET WITH NO SIGNIFICANT WEATHER AND/OR OBSTRUCTIONS TO VISIBILITY. NOT ALL STATIONS ARE QUALITY CONTROLLED BY THE NATIONAL WEATHER SERVICE. USE DATA WITH CAUTION...ESPECIALLY DEWPOINT OBSERVATIONS. SCZ027-030-031-034>040-042>050-021700- ...SOUTHEAST SOUTH CAROLINA... CITY SKY/WX TMP DP RH WIND PRES REMARKS N CHARLESTON PTSUNNY 88 72 58 SE13 29.94S HX 94 WATERFRONT PRK N/A 82 77 84 E7 29.92S HX 90 MOUNT PLEASANT LGT RAIN 86 77 74 SE8 29.95S HX 97 JOHNS ISLAND PTSUNNY 84 77 79 S15 29.95S HX 94 PINOPOLIS NOT AVBL MONCKS CORNER FAIR 90 72 55 SE5 29.94F HX 96 SUMMERVILLE PTSUNNY 90 73 58 NE7 29.94F HX 98 BEAUFORT MCAS CLOUDY 77 75 93 E7 29.96R VSB 1 BEAUFORT ARPT LGT RAIN 79 77 94 CALM 29.95R HILTON HEAD IS PTSUNNY 82 75 78 CALM 29.95S WALTERBORO PTSUNNY 88 73 62 CALM 29.94F HX 96 ALLENDALE PTSUNNY 86 73 66 VRB6 29.94S HX 93 ...SOUTHERN MIDLANDS AND PEE DEE... CITY SKY/WX TMP DP RH WIND PRES REMARKS GEORGETOWN NOT AVBL KINGSTREE NOT AVBL ORANGEBURG MOSUNNY 88 71 57 NE8 29.95S HX 94 BARNWELL FAIR 88 73 62 E7 29.96S HX 96 AIKEN FAIR 86 66 51 SE7 29.99S MANNING RAIN 88 68 51 CALM 29.94F HX 91 COLUMBIA MOSUNNY 91 70 49 VRB5 29.94S HX 96 SUMTER SUNNY 91 68 47 NE9 29.93S HX 95 FLORENCE SUNNY 89 65 44 E9 29.95S HX 91 MYRTLE BEACH MOSUNNY 88 73 62 S10 29.97S HX 96 N MYRTLE BEACH SUNNY 86 74 67 S7 29.96R HX 94 $$ GAZ063-065-086>088-099>101-113>116-118-119-134>141-150-021700- ...SOUTHEAST GEORGIA... CITY SKY/WX TMP DP RH WIND PRES REMARKS SAVANNAH ARPT LGT RAIN 75 73 94 NE7 29.95R HUNTER AAF MOSUNNY 79 79 100 N3 29.92R FORT STEWART PTSUNNY 90 73 58 SE6 29.84S HX 98 STATESBORO PTSUNNY 84 80 88 E5 29.94S HX 97 SYLVANIA PTSUNNY 85 77 78 E3 29.95S HX 95 CLAXTON NOT AVBL ...CSRA...CENTRAL AND FAR SOUTHEAST GEORGIA... CITY SKY/WX TMP DP RH WIND PRES REMARKS THOMSON SUNNY 90 74 59 NE9 29.99F HX 99 AUGUSTA-BUSH MOSUNNY 87 75 67 S8 29.94S HX 96 AUGUSTA-DANIEL MOSUNNY 87 72 60 SE7 29.96S HX 93 SWAINSBORO CLOUDY 84 77 79 NE6 29.95F HX 94 VIDALIA CLOUDY 82 73 74 SE6 29.94S EASTMAN PTSUNNY 85 76 73 CALM 29.95F HX 94 HAZLEHURST CLOUDY 82 76 81 E6 29.92S ALMA CLOUDY 81 73 76 VRB5 29.92S WAYCROSS CLOUDY 84 78 82 E3 29.91S HX 94 JESUP PTSUNNY 88 75 66 S6 29.92S HX 97 BAXLEY CLOUDY 82 73 74 E5 29.92S BRUNSWICK CLOUDY 81 73 78 CALM 29.93S SAINT SIMONS CLOUDY 81 73 76 S9 29.92R $$ SCZ027-028-034-036>038-045-046-048>050-GAZ119-141-021700- ...LAKE AND SUPPLEMENTAL COASTAL OBSERVATIONS... STATION/POSITION TIME TEMP WIND PRES WAVE SWELL AIR SEA DIR/SP/G HT/PER HT/PER/DIR (UTC) (F) (DEG/KT/KT) (MB) (FT/S) (FT/S/D) UPR LAKE MARION NOT AVBL WINYAH BAY 1500 83 110/ 4 1013.0S LAKE MURRAY 1500 86 140/ 3/ 4 1013.5S ACE BASIN NERRS NOT AVBL FORT PULASKI 1600 78 86 10/ 3/ 4 1014.2F SAPELO ISLAND 1600 80 130/ 3 1013.0S $$ ANZ835-935-AMZ111-154-330-350-352-354-370-450-454-472-021700- ...C-MAN AND BUOY OBSERVATIONS... STATION/POSITION TIME TEMP WIND PRES WAVE SWELL AIR SEA DIR/SP/G HT/PER HT/PER/DIR (UTC) (F) (DEG/KT/KT) (MB) (FT/S) (FT/S/D) BUOY 41004 1550 76 83 350/ 2/ 4 1014.5R 4/ 7 3/ 7 BUOY 41008 1550 80 83 180/ 12/ 14 1013.5R 3/ 6 2/150/ 6 FOLLY BEACH CMAN 1600 83 160/ 7/ 8 1014.4R CAPERS NEARSHORE 1508 82 70/ 6/ 10 1014.2R FRIPP NEARSHORE 1500 83 210/ 10/ 12 1013.6R STATION/POSITION TIME TEMP WIND PRES WAVE SWELL AIR SEA DIR/SP/G HT/PER HT/PER/DIR (UTC) (F) (DEG/KT/KT) (MB) (FT/S) (FT/S/D) 5E ST. MARYS GA 1521 83 N/A 3/ 5 2/110/13 FRYING PAN BUOY 1550 83 85 CALM / 2 1015.4R 5/ 8 5/170/ 8 BUOY 41025 1550 83 87 160/ 4/ 6 1014.5R 3/ 7 3/180/ 7 CAPE LOOKOUT NC 1600 82 160/ 6/ 7 1014.0S BUOY 41002 1550 83 81 220/ 14/ 17 1016.5S 7/ 8 5/270/ 8 BUOY 41010 1520 83 84 170/ 12/ 14 1016.2R ST AUGUSTINE FL 1600 85 80 200/ 17/ 20 1013.8F $$

USA.gov is the U.S. government's official web portal to all federal, state and local government web resources and services.